sat.trackr.live / text

‹ back to catalog

ONEWEB-0535

NORAD 54147 · 2022-138AL

PAYLOAD ACTIVE UNKNOWN

§ Identity

Operator
Country
UK
Launch date
2022-10-22
Launch site
SRILR
Launch vehicle
Mass (kg)
RCS (m²)

Purposes: comms

External: N2YO · Heavens-Above · Gunter

§ Orbital elements

Epoch: 2026-09-20T00:02:46.792608Z

Period
109.11 min
Inclination
87.9118°
Eccentricity
0.0001961
Mean motion
13.19726635 rev/d
Perigee alt
1,184.3 km
Apogee alt
1,187.2 km
Semi-major
7,563.9 km
B*
1.8304e-4
RAAN
286.0738°
Arg perigee
101.3793°
Mean anomaly
258.7560°
Rev number
18,934

§ Raw data

ONEWEB-05351 54147U 22138AL  26263.00193047  .00000086  00000+0  18304-3 0  99922 54147  87.9118 286.0738 0001961 101.3793 258.7560 13.19726635189343

JSON: /api/v1/satellites/54147 · /tle

For live sub-satellite position, see the globe view (requires WebGL).

§ Visibility from observer

Set your observer location to see the next 7 days of passes ≥ 10°. The values pass through the URL so the page stays shareable.

No JS? Fill the form by hand. The geolocation button needs JavaScript.